Jaipur, India

10:29 AM IST on March 30, 2017 (GMT +0530)
Jaipur

Weather History for VIJP - January, 2014

Change the Weather History Date:

Friday, January 17, 2014

  Actual Average Record
Temperature  
Mean Temperature 52 °F -  
Max Temperature 59 °F - - ()
Min Temperature 45 °F - - ()
Degree Days  
Heating Degree Days 13    
Growing Degree Days 2 (Base 50)    
Moisture  
Dew Point 49 °F    
Average Humidity 88    
Maximum Humidity 100    
Minimum Humidity 61    
Precipitation  
Precipitation 0.00 in - - ()
Sea Level Pressure  
Sea Level Pressure 30.03 in    
Wind  
Wind Speed 6 mph ()    
Max Wind Speed 14 mph    
Max Gust Speed -    
Visibility 0.8 miles    
Events Fog    
T = Trace of Precipitation, MM = Missing Value Source: Averaged Metar Reports

Daily Weather History Graph

Daily Weather History Graph

Search for Another Location

Airport or City:

Trip Planner

Search our weather history database for the weather conditions in past years. The results will help you decide how hot, cold, wet, or windy it might be!

Date:

Astronomy

Jan. 17, 2014 Rise Set
Actual Time 7:16 AM IST 5:56 PM IST
Civil Twilight 6:52 AM IST 6:21 PM IST
Nautical Twilight 6:23 AM IST 6:50 PM IST
Astronomical Twilight 5:55 AM IST 7:18 PM IST
Moon 7:06 PM IST (1/17) 7:39 AM IST (1/17)
Length of Visible Light 11h 29m
Length of Day
10h 39m
Full, 99% of the Moon is Illuminated
Jan 17
Full
Jan 24
Last Quarter
Jan 31
New
Feb 7
First Quarter
Feb 15
Full

Hourly Weather History & Observations

Time (IST) Temp. Windchill Dew Point Humidity Pressure Visibility Wind Dir Wind Speed Gust Speed Precip Events Conditions
12:00 AM 51.8 °F - 46.4 °F 82% 30.09 in 0.4 mi East 5.8 mph - N/A Fog Shallow Fog
1:00 AM 51.8 °F - 46.4 °F 82% 30.06 in 0.4 mi East 4.6 mph - N/A Fog Shallow Fog
2:00 AM 48.2 °F - 46.4 °F 93% 30.06 in 0.4 mi ESE 5.8 mph - N/A Fog Shallow Fog
2:30 AM 46 °F - 44 °F 90% 30.09 in 0 mi East 2.3 mph - - Fog Shallow Fog
4:00 AM 46.4 °F 44.3 °F 44.6 °F 93% 30.04 in 0.4 mi East 4.6 mph - N/A Fog Shallow Fog
5:00 AM 48.2 °F - 46.4 °F 93% 30.04 in 0.4 mi East 5.8 mph - N/A Fog Shallow Fog
5:30 AM 47 °F - 46 °F 93% 30.06 in 1 mi East 4.6 mph - -   Mist
6:00 AM 46.4 °F 44.3 °F 44.6 °F 93% 30.04 in 0.4 mi East 4.6 mph - N/A Fog Shallow Fog
7:00 AM 50.0 °F - 50.0 °F 100% 30.06 in 0.4 mi East 11.5 mph - N/A Fog Shallow Fog
8:00 AM 50.0 °F - 50.0 °F 100% 30.06 in 0.3 mi East 11.5 mph - N/A Fog Fog
8:30 AM 50 °F - 50 °F 98% 30.07 in 0 mi East 11.5 mph - - Fog Heavy Fog
9:00 AM 50.0 °F - 50.0 °F 100% 30.09 in 0.3 mi East 11.5 mph - N/A Fog Fog
10:00 AM 51.8 °F - 50.0 °F 94% 30.09 in 0.4 mi East 13.8 mph - N/A Fog Shallow Fog
11:30 AM 52 °F - 50 °F 89% 30.09 in 1 mi East 11.5 mph - -   Scattered Clouds
1:30 PM 57.2 °F - 48.2 °F 72% 30.01 in 1.2 mi East 10.4 mph - N/A   Smoke
2:00 PM 57.2 °F - 48.2 °F 72% 30.01 in 1.2 mi East 10.4 mph - N/A   Smoke
2:30 PM 58 °F - 48 °F 61% 29.98 in 1 mi ESE 9.2 mph - -   Haze
3:00 PM 55.4 °F - 48.2 °F 77% 29.98 in 1.6 mi East 9.2 mph - N/A   Haze
4:00 PM 55.4 °F - 50.0 °F 82% 29.95 in 1.6 mi East 10.4 mph - N/A   Haze
5:00 PM 55.4 °F - 50.0 °F 82% 29.98 in 1.6 mi East 8.1 mph - N/A   Haze
5:30 PM 56 °F - 49 °F 72% 29.96 in 1 mi East 5.8 mph - -   Haze
6:00 PM 55.4 °F - 50.0 °F 82% 29.98 in 1.2 mi Variable 3.5 mph - N/A   Mostly Cloudy
7:00 PM 55.4 °F - 50.0 °F 82% 29.98 in 1.2 mi East 5.8 mph - N/A   Mostly Cloudy
8:00 PM 53.6 °F - 51.8 °F 94% 29.98 in 1.2 mi ESE 8.1 mph - N/A   Mostly Cloudy
8:30 PM 54 °F - 51 °F 84% 29.98 in 1 mi East 4.6 mph - -   Mist
9:00 PM 51.8 °F - 51.8 °F 100% 30.01 in 1.2 mi ESE 8.1 mph - N/A   Scattered Clouds
10:00 PM 51.8 °F - 51.8 °F 100% 30.01 in 1.0 mi East 8.1 mph - N/A   Scattered Clouds
11:00 PM 53.6 °F - 53.6 °F 100% 30.01 in 1.2 mi Variable 1.2 mph - N/A   Scattered Clouds
11:30 PM 53 °F - 51 °F 92% 30.01 in 1 mi Calm Calm - -   Mist